Time,TemperatureF,DewpointF,PressureIn,WindDirection,WindDirectionDegrees,WindSpeedMPH,WindSpeedGustMPH,Humidity,HourlyPrecipIn,Conditions,Clouds,dailyrainin,SoftwareType,DateUTC
2013-04-14 00:00:00,39.0,33.0,29.97,South,180,11.0,16.0,78,0.00,,,0.50,Rainwise IP-100,2013-04-14 04:00:00,
2013-04-14 00:01:00,39.0,32.0,29.97,SSW,202,10.0,16.0,77,0.00,,,0.00,Rainwise IP-100,2013-04-14 04:01:00,
2013-04-14 00:06:00,39.0,32.0,29.97,SW,225,12.0,15.0,77,0.00,,,0.00,Rainwise IP-100,2013-04-14 04:06:00,
2013-04-14 00:11:00,39.0,32.0,29.97,SSW,202,12.0,18.0,76,0.00,,,0.00,Rainwise IP-100,2013-04-14 04:11:00,
2013-04-14 00:16:00,39.0,32.0,29.97,SSW,202,10.0,17.0,76,0.00,,,0.00,Rainwise IP-100,2013-04-14 04:16:00,
2013-04-14 00:21:00,39.0,32.0,29.97,South,180,10.0,17.0,77,0.00,,,0.00,Rainwise IP-100,2013-04-14 04:21:00,
2013-04-14 00:26:00,39.0,32.0,29.97,South,180,9.0,19.0,76,0.00,,,0.00,Rainwise IP-100,2013-04-14 04:26:00,
2013-04-14 00:31:00,39.0,32.0,29.97,SW,225,11.0,15.0,77,0.00,,,0.00,Rainwise IP-100,2013-04-14 04:31:00,
2013-04-14 00:36:00,39.0,33.0,29.97,SSW,202,12.0,14.0,78,0.00,,,0.00,Rainwise IP-100,2013-04-14 04:36:00,
2013-04-14 00:41:00,39.0,33.0,29.97,SW,225,8.0,13.0,78,0.00,,,0.00,Rainwise IP-100,2013-04-14 04:41:00,
2013-04-14 00:46:00,38.0,32.0,29.97,South,180,9.0,12.0,78,0.00,,,0.00,Rainwise IP-100,2013-04-14 04:46:00,
2013-04-14 00:51:00,39.0,33.0,29.97,WSW,247,10.0,12.0,78,0.00,,,0.00,Rainwise IP-100,2013-04-14 04:51:00,
2013-04-14 00:56:00,38.0,32.0,29.97,South,180,7.0,12.0,79,0.00,,,0.00,Rainwise IP-100,2013-04-14 04:56:00,
2013-04-14 01:01:00,39.0,33.0,29.97,South,180,6.0,15.0,78,0.00,,,0.00,Rainwise IP-100,2013-04-14 05:01:00,
2013-04-14 01:06:00,38.0,32.0,29.97,SSW,202,10.0,13.0,78,0.00,,,0.00,Rainwise IP-100,2013-04-14 05:06:00,
2013-04-14 01:11:00,38.0,32.0,29.97,South,180,10.0,14.0,79,0.00,,,0.00,Rainwise IP-100,2013-04-14 05:11:00,
2013-04-14 01:16:00,38.0,32.0,29.97,SW,225,10.0,14.0,78,0.00,,,0.00,Rainwise IP-100,2013-04-14 05:16:00,
2013-04-14 01:21:00,38.0,32.0,29.97,SW,225,10.0,15.0,78,0.00,,,0.00,Rainwise IP-100,2013-04-14 05:21:00,
2013-04-14 01:26:00,38.0,32.0,29.97,SW,225,6.0,15.0,79,0.00,,,0.00,Rainwise IP-100,2013-04-14 05:26:00,
2013-04-14 01:31:00,38.0,32.0,29.97,SSW,202,9.0,12.0,79,0.00,,,0.00,Rainwise IP-100,2013-04-14 05:31:00,
2013-04-14 01:36:00,38.0,32.0,29.97,SW,225,10.0,13.0,79,0.00,,,0.00,Rainwise IP-100,2013-04-14 05:36:00,
2013-04-14 01:41:00,38.0,32.0,29.97,SW,225,9.0,15.0,78,0.00,,,0.00,Rainwise IP-100,2013-04-14 05:41:00,
2013-04-14 01:46:00,38.0,32.0,29.97,SW,225,9.0,13.0,79,0.00,,,0.00,Rainwise IP-100,2013-04-14 05:46:00,
2013-04-14 01:51:00,38.0,32.0,29.96,SW,225,6.0,12.0,80,0.00,,,0.00,Rainwise IP-100,2013-04-14 05:51:00,
2013-04-14 01:56:00,38.0,32.0,29.96,SW,225,7.0,13.0,79,0.00,,,0.00,Rainwise IP-100,2013-04-14 05:56:00,
2013-04-14 02:01:00,38.0,33.0,29.96,SW,225,8.0,13.0,81,0.00,,,0.00,Rainwise IP-100,2013-04-14 06:01:00,
2013-04-14 02:06:00,38.0,32.0,29.96,SW,225,7.0,12.0,80,0.00,,,0.00,Rainwise IP-100,2013-04-14 06:06:00,
2013-04-14 02:11:00,38.0,33.0,29.97,West,270,12.0,13.0,81,0.00,,,0.00,Rainwise IP-100,2013-04-14 06:11:00,
2013-04-14 02:16:00,38.0,33.0,29.97,WSW,247,10.0,16.0,81,0.00,,,0.00,Rainwise IP-100,2013-04-14 06:16:00,
2013-04-14 02:21:00,38.0,33.0,29.96,WSW,247,7.0,17.0,81,0.00,,,0.00,Rainwise IP-100,2013-04-14 06:21:00,
2013-04-14 02:26:00,38.0,33.0,29.96,WSW,247,10.0,15.0,82,0.00,,,0.00,Rainwise IP-100,2013-04-14 06:26:00,
2013-04-14 02:31:00,38.0,33.0,29.95,SW,225,16.0,16.0,81,0.00,,,0.00,Rainwise IP-100,2013-04-14 06:31:00,
2013-04-14 02:36:00,38.0,33.0,29.95,SW,225,7.0,16.0,82,0.00,,,0.00,Rainwise IP-100,2013-04-14 06:36:00,
2013-04-14 02:41:00,38.0,33.0,29.96,WSW,247,6.0,15.0,83,0.00,,,0.00,Rainwise IP-100,2013-04-14 06:41:00,
2013-04-14 02:46:00,38.0,33.0,29.96,SW,225,9.0,12.0,83,0.00,,,0.00,Rainwise IP-100,2013-04-14 06:46:00,
2013-04-14 02:51:00,38.0,33.0,29.96,SW,225,8.0,12.0,82,0.00,,,0.00,Rainwise IP-100,2013-04-14 06:51:00,
2013-04-14 02:57:00,38.0,33.0,29.96,SW,225,13.0,13.0,82,0.00,,,0.00,Rainwise IP-100,2013-04-14 06:57:00,
2013-04-14 03:02:00,38.0,33.0,29.96,WSW,247,9.0,15.0,82,0.00,,,0.00,Rainwise IP-100,2013-04-14 07:02:00,
2013-04-14 03:07:00,38.0,33.0,29.96,SW,225,7.0,13.0,84,0.00,,,0.00,Rainwise IP-100,2013-04-14 07:07:00,
2013-04-14 03:12:00,38.0,33.0,29.96,SW,225,10.0,12.0,82,0.00,,,0.00,Rainwise IP-100,2013-04-14 07:12:00,
2013-04-14 03:17:00,38.0,33.0,29.96,SW,225,9.0,12.0,83,0.00,,,0.00,Rainwise IP-100,2013-04-14 07:17:00,
2013-04-14 03:22:00,38.0,33.0,29.95,SW,225,8.0,13.0,84,0.00,,,0.00,Rainwise IP-100,2013-04-14 07:22:00,
2013-04-14 03:27:00,38.0,33.0,29.95,WSW,247,9.0,13.0,82,0.00,,,0.00,Rainwise IP-100,2013-04-14 07:27:00,
2013-04-14 03:32:00,38.0,33.0,29.96,SW,225,6.0,15.0,82,0.00,,,0.00,Rainwise IP-100,2013-04-14 07:32:00,
2013-04-14 03:37:00,38.0,33.0,29.96,WSW,247,6.0,12.0,83,0.00,,,0.00,Rainwise IP-100,2013-04-14 07:37:00,
2013-04-14 03:42:00,38.0,33.0,29.96,SSW,202,6.0,12.0,82,0.00,,,0.00,Rainwise IP-100,2013-04-14 07:42:00,
2013-04-14 03:47:00,37.0,32.0,29.96,WSW,247,6.0,9.0,84,0.00,,,0.00,Rainwise IP-100,2013-04-14 07:47:00,
2013-04-14 03:52:00,38.0,33.0,29.96,SW,225,10.0,10.0,84,0.00,,,0.00,Rainwise IP-100,2013-04-14 07:52:00,
2013-04-14 03:57:00,37.0,32.0,29.96,SW,225,7.0,13.0,83,0.00,,,0.00,Rainwise IP-100,2013-04-14 07:57:00,
2013-04-14 04:02:00,37.0,32.0,29.96,SW,225,8.0,12.0,83,0.00,,,0.00,Rainwise IP-100,2013-04-14 08:02:00,
2013-04-14 04:07:00,37.0,32.0,29.96,WSW,247,6.0,12.0,84,0.00,,,0.00,Rainwise IP-100,2013-04-14 08:07:00,
2013-04-14 04:12:00,37.0,32.0,29.96,SW,225,7.0,12.0,84,0.00,,,0.00,Rainwise IP-100,2013-04-14 08:12:00,
2013-04-14 04:17:00,37.0,32.0,29.96,SW,225,9.0,13.0,84,0.00,,,0.00,Rainwise IP-100,2013-04-14 08:17:00,
2013-04-14 04:22:00,37.0,32.0,29.97,WSW,247,12.0,13.0,84,0.00,,,0.00,Rainwise IP-100,2013-04-14 08:22:00,
2013-04-14 04:27:00,37.0,32.0,29.97,WSW,247,10.0,13.0,84,0.00,,,0.00,Rainwise IP-100,2013-04-14 08:27:00,
2013-04-14 04:32:00,37.0,32.0,29.97,SW,225,9.0,11.0,84,0.00,,,0.00,Rainwise IP-100,2013-04-14 08:32:00,
2013-04-14 04:37:00,37.0,33.0,29.97,WSW,247,9.0,16.0,85,0.00,,,0.00,Rainwise IP-100,2013-04-14 08:37:00,
2013-04-14 04:42:00,37.0,33.0,29.97,SSW,202,3.0,11.0,86,0.00,,,0.00,Rainwise IP-100,2013-04-14 08:42:00,
2013-04-14 04:47:00,37.0,33.0,29.97,SW,225,9.0,11.0,87,0.00,,,0.00,Rainwise IP-100,2013-04-14 08:47:00,
2013-04-14 04:52:00,37.0,33.0,29.97,SSW,202,9.0,10.0,86,0.00,,,0.00,Rainwise IP-100,2013-04-14 08:52:00,
2013-04-14 04:57:00,37.0,33.0,29.97,SW,225,5.0,10.0,86,0.00,,,0.00,Rainwise IP-100,2013-04-14 08:57:00,
2013-04-14 05:02:00,37.0,33.0,29.97,SSW,202,7.0,8.0,86,0.00,,,0.00,Rainwise IP-100,2013-04-14 09:02:00,
2013-04-14 05:07:00,37.0,33.0,29.97,SSW,202,6.0,9.0,86,0.00,,,0.00,Rainwise IP-100,2013-04-14 09:07:00,
2013-04-14 05:12:00,37.0,33.0,29.96,SW,225,6.0,8.0,85,0.00,,,0.00,Rainwise IP-100,2013-04-14 09:12:00,
2013-04-14 05:17:00,37.0,33.0,29.96,South,180,7.0,7.0,85,0.00,,,0.00,Rainwise IP-100,2013-04-14 09:17:00,
2013-04-14 05:22:00,37.0,33.0,29.97,SW,225,5.0,9.0,88,0.00,,,0.00,Rainwise IP-100,2013-04-14 09:22:00,
2013-04-14 05:27:00,36.0,32.0,29.97,SW,225,5.0,7.0,87,0.00,,,0.00,Rainwise IP-100,2013-04-14 09:27:00,
2013-04-14 05:32:00,36.0,32.0,29.97,SSW,202,8.0,9.0,87,0.00,,,0.00,Rainwise IP-100,2013-04-14 09:32:00,
2013-04-14 05:37:00,37.0,33.0,29.97,South,180,6.0,9.0,87,0.00,,,0.00,Rainwise IP-100,2013-04-14 09:37:00,
2013-04-14 05:42:00,37.0,33.0,29.97,SW,225,6.0,9.0,87,0.00,,,0.00,Rainwise IP-100,2013-04-14 09:42:00,
2013-04-14 05:47:00,36.0,32.0,29.97,SSW,202,6.0,9.0,87,0.00,,,0.00,Rainwise IP-100,2013-04-14 09:47:00,
2013-04-14 05:52:00,36.0,32.0,29.96,South,180,5.0,9.0,87,0.00,,,0.00,Rainwise IP-100,2013-04-14 09:52:00,
2013-04-14 05:57:00,36.0,32.0,29.96,SSW,202,4.0,7.0,88,0.00,,,0.00,Rainwise IP-100,2013-04-14 09:57:00,
2013-04-14 06:02:00,36.0,32.0,29.97,SSW,202,6.0,9.0,87,0.00,,,0.00,Rainwise IP-100,2013-04-14 10:02:00,
2013-04-14 06:07:00,37.0,33.0,29.97,SW,225,6.0,10.0,87,0.00,,,0.00,Rainwise IP-100,2013-04-14 10:07:00,
2013-04-14 06:12:00,37.0,33.0,29.97,SSW,202,6.0,8.0,87,0.00,,,0.00,Rainwise IP-100,2013-04-14 10:12:00,
2013-04-14 06:17:00,37.0,33.0,29.97,SSW,202,6.0,8.0,88,0.00,,,0.00,Rainwise IP-100,2013-04-14 10:17:00,
2013-04-14 06:22:00,37.0,33.0,29.98,SW,225,6.0,7.0,88,0.00,,,0.00,Rainwise IP-100,2013-04-14 10:22:00,
2013-04-14 06:27:00,37.0,33.0,29.98,SW,225,6.0,8.0,88,0.00,,,0.00,Rainwise IP-100,2013-04-14 10:27:00,
2013-04-14 06:32:00,36.0,32.0,29.98,SW,225,5.0,10.0,87,0.00,,,0.00,Rainwise IP-100,2013-04-14 10:32:00,
2013-04-14 06:37:00,36.0,32.0,29.98,WSW,247,7.0,9.0,87,0.00,,,0.00,Rainwise IP-100,2013-04-14 10:37:00,
2013-04-14 06:42:00,36.0,32.0,29.98,WSW,247,6.0,9.0,87,0.00,,,0.00,Rainwise IP-100,2013-04-14 10:42:00,
2013-04-14 06:47:00,36.0,32.0,29.98,SW,225,7.0,10.0,87,0.00,,,0.00,Rainwise IP-100,2013-04-14 10:47:00,
2013-04-14 06:52:00,36.0,33.0,29.99,WSW,247,10.0,12.0,89,0.00,,,0.00,Rainwise IP-100,2013-04-14 10:52:00,
2013-04-14 06:57:00,36.0,33.0,29.99,WSW,247,7.0,12.0,92,0.00,,,0.00,Rainwise IP-100,2013-04-14 10:57:00,
2013-04-14 07:02:00,36.0,35.0,29.99,SW,225,6.0,12.0,93,0.00,,,0.00,Rainwise IP-100,2013-04-14 11:02:00,
2013-04-14 07:07:00,36.0,35.0,29.99,WSW,247,6.0,12.0,95,0.00,,,0.00,Rainwise IP-100,2013-04-14 11:07:00,
2013-04-14 07:12:00,36.0,35.0,30.00,SSW,202,7.0,9.0,95,0.00,,,0.00,Rainwise IP-100,2013-04-14 11:12:00,
2013-04-14 07:17:00,35.0,33.0,30.00,SSW,202,9.0,10.0,95,0.00,,,0.00,Rainwise IP-100,2013-04-14 11:17:00,
2013-04-14 07:22:00,35.0,33.0,30.01,SW,225,9.0,10.0,95,0.06,,,0.01,Rainwise IP-100,2013-04-14 11:22:00,
2013-04-14 07:27:00,35.0,33.0,30.01,SW,225,3.0,9.0,95,0.06,,,0.01,Rainwise IP-100,2013-04-14 11:27:00,
2013-04-14 07:32:00,34.0,33.0,30.01,West,270,8.0,9.0,95,0.00,,,0.01,Rainwise IP-100,2013-04-14 11:32:00,
2013-04-14 07:37:00,34.0,33.0,30.01,WSW,247,5.0,11.0,95,0.00,,,0.01,Rainwise IP-100,2013-04-14 11:37:00,
2013-04-14 07:42:00,34.0,33.0,30.03,NW,315,4.0,6.0,95,0.06,,,0.02,Rainwise IP-100,2013-04-14 11:42:00,
2013-04-14 07:47:00,34.0,33.0,30.03,NW,315,0.0,6.0,95,0.06,,,0.02,Rainwise IP-100,2013-04-14 11:47:00,
2013-04-14 07:52:00,33.0,32.0,30.03,North,360,0.0,1.0,95,0.00,,,0.02,Rainwise IP-100,2013-04-14 11:52:00,
2013-04-14 07:57:00,33.0,32.0,30.03,East,90,3.0,6.0,95,0.06,,,0.03,Rainwise IP-100,2013-04-14 11:57:00,
2013-04-14 08:02:00,33.0,32.0,30.04,East,90,0.0,5.0,95,0.06,,,0.03,Rainwise IP-100,2013-04-14 12:02:00,
2013-04-14 08:07:00,33.0,32.0,30.04,SE,135,6.0,6.0,95,0.00,,,0.03,Rainwise IP-100,2013-04-14 12:07:00,
2013-04-14 08:12:00,33.0,32.0,30.04,SE,135,5.0,7.0,95,0.06,,,0.04,Rainwise IP-100,2013-04-14 12:12:00,
2013-04-14 08:17:00,33.0,32.0,30.04,SSW,202,2.0,6.0,95,0.06,,,0.04,Rainwise IP-100,2013-04-14 12:17:00,
2013-04-14 08:23:00,34.0,33.0,30.04,South,180,5.0,6.0,95,0.00,,,0.04,Rainwise IP-100,2013-04-14 12:23:00,
2013-04-14 08:28:00,34.0,33.0,30.04,SE,135,7.0,7.0,95,0.00,,,0.04,Rainwise IP-100,2013-04-14 12:28:00,
2013-04-14 08:33:00,34.0,33.0,30.05,SSE,157,5.0,7.0,95,0.00,,,0.04,Rainwise IP-100,2013-04-14 12:33:00,
2013-04-14 08:38:00,34.0,33.0,30.05,SE,135,3.0,6.0,95,0.00,,,0.04,Rainwise IP-100,2013-04-14 12:38:00,
2013-04-14 08:43:00,35.0,33.0,30.04,SE,135,2.0,6.0,95,0.00,,,0.04,Rainwise IP-100,2013-04-14 12:43:00,
2013-04-14 08:48:00,35.0,33.0,30.04,SSE,157,2.0,6.0,95,0.00,,,0.04,Rainwise IP-100,2013-04-14 12:48:00,
2013-04-14 08:53:00,35.0,33.0,30.05,SSE,157,5.0,6.0,95,0.00,,,0.04,Rainwise IP-100,2013-04-14 12:53:00,
2013-04-14 08:58:00,35.0,33.0,30.05,SE,135,4.0,7.0,95,0.06,,,0.05,Rainwise IP-100,2013-04-14 12:58:00,
2013-04-14 09:03:00,35.0,33.0,30.05,SE,135,6.0,8.0,95,0.06,,,0.05,Rainwise IP-100,2013-04-14 13:03:00,
2013-04-14 09:08:00,35.0,33.0,30.05,SSE,157,1.0,10.0,95,0.00,,,0.05,Rainwise IP-100,2013-04-14 13:08:00,
2013-04-14 09:13:00,36.0,35.0,30.04,South,180,6.0,6.0,95,0.00,,,0.05,Rainwise IP-100,2013-04-14 13:13:00,
2013-04-14 09:18:00,36.0,33.0,30.04,SW,225,4.0,10.0,92,0.00,,,0.05,Rainwise IP-100,2013-04-14 13:18:00,
2013-04-14 09:23:00,36.0,33.0,30.04,South,180,4.0,6.0,90,0.00,,,0.05,Rainwise IP-100,2013-04-14 13:23:00,
2013-04-14 09:28:00,36.0,33.0,30.04,SW,225,5.0,7.0,92,0.00,,,0.05,Rainwise IP-100,2013-04-14 13:28:00,
2013-04-14 09:33:00,37.0,35.0,30.04,WNW,292,6.0,7.0,92,0.00,,,0.05,Rainwise IP-100,2013-04-14 13:33:00,
2013-04-14 09:38:00,37.0,36.0,30.04,NE,45,6.0,7.0,94,0.00,,,0.05,Rainwise IP-100,2013-04-14 13:38:00,
2013-04-14 09:43:00,37.0,35.0,30.05,East,90,4.0,8.0,89,0.00,,,0.05,Rainwise IP-100,2013-04-14 13:43:00,
2013-04-14 09:48:00,37.0,35.0,30.05,East,90,4.0,6.0,89,0.00,,,0.05,Rainwise IP-100,2013-04-14 13:48:00,
2013-04-14 09:53:00,37.0,33.0,30.05,East,90,0.0,6.0,88,0.00,,,0.05,Rainwise IP-100,2013-04-14 13:53:00,
2013-04-14 09:58:00,38.0,36.0,30.05,WNW,292,1.0,4.0,92,0.00,,,0.05,Rainwise IP-100,2013-04-14 13:58:00,
2013-04-14 10:03:00,38.0,36.0,30.04,North,360,1.0,4.0,90,0.00,,,0.05,Rainwise IP-100,2013-04-14 14:03:00,
2013-04-14 10:08:00,37.0,33.0,30.04,East,90,7.0,7.0,87,0.00,,,0.05,Rainwise IP-100,2013-04-14 14:08:00,
2013-04-14 10:13:00,37.0,33.0,30.05,East,90,2.0,7.0,88,0.00,,,0.05,Rainwise IP-100,2013-04-14 14:13:00,
2013-04-14 10:18:00,38.0,36.0,30.05,East,90,0.0,3.0,91,0.00,,,0.05,Rainwise IP-100,2013-04-14 14:18:00,
2013-04-14 10:23:00,38.0,35.0,30.05,North,360,4.0,7.0,89,0.00,,,0.05,Rainwise IP-100,2013-04-14 14:23:00,
2013-04-14 10:28:00,39.0,35.0,30.05,ENE,67,3.0,6.0,84,0.00,,,0.05,Rainwise IP-100,2013-04-14 14:28:00,
2013-04-14 10:33:00,39.0,36.0,30.05,North,360,0.0,8.0,86,0.00,,,0.05,Rainwise IP-100,2013-04-14 14:33:00,
2013-04-14 10:38:00,39.0,37.0,30.05,North,360,1.0,1.0,90,0.00,,,0.05,Rainwise IP-100,2013-04-14 14:38:00,
2013-04-14 10:43:00,39.0,35.0,30.05,WNW,292,3.0,5.0,85,0.00,,,0.05,Rainwise IP-100,2013-04-14 14:43:00,
2013-04-14 10:48:00,39.0,35.0,30.05,NNE,22,0.0,6.0,85,0.00,,,0.05,Rainwise IP-100,2013-04-14 14:48:00,
2013-04-14 10:53:00,40.0,36.0,30.06,East,90,5.0,5.0,83,0.00,,,0.05,Rainwise IP-100,2013-04-14 14:53:00,
2013-04-14 10:58:00,39.0,35.0,30.06,East,90,1.0,6.0,82,0.00,,,0.05,Rainwise IP-100,2013-04-14 14:58:00,
2013-04-14 11:03:00,39.0,33.0,30.05,East,90,2.0,5.0,79,0.00,,,0.05,Rainwise IP-100,2013-04-14 15:03:00,
2013-04-14 11:08:00,39.0,35.0,30.05,South,180,3.0,6.0,84,0.00,,,0.05,Rainwise IP-100,2013-04-14 15:08:00,
2013-04-14 11:13:00,39.0,33.0,30.05,SW,225,3.0,6.0,80,0.00,,,0.05,Rainwise IP-100,2013-04-14 15:13:00,
2013-04-14 11:18:00,40.0,35.0,30.05,WNW,292,2.0,5.0,79,0.00,,,0.05,Rainwise IP-100,2013-04-14 15:18:00,
2013-04-14 11:23:00,40.0,35.0,30.05,North,360,4.0,6.0,80,0.00,,,0.05,Rainwise IP-100,2013-04-14 15:23:00,
2013-04-14 11:28:00,40.0,35.0,30.05,North,360,5.0,7.0,79,0.00,,,0.05,Rainwise IP-100,2013-04-14 15:28:00,
2013-04-14 11:33:00,40.0,35.0,30.05,North,360,3.0,9.0,78,0.00,,,0.05,Rainwise IP-100,2013-04-14 15:33:00,
2013-04-14 11:38:00,40.0,36.0,30.05,NNW,337,11.0,12.0,83,0.00,,,0.05,Rainwise IP-100,2013-04-14 15:38:00,
2013-04-14 11:43:00,39.0,35.0,30.07,North,360,6.0,12.0,84,0.00,,,0.05,Rainwise IP-100,2013-04-14 15:43:00,
2013-04-14 11:48:00,39.0,33.0,30.07,North,360,4.0,7.0,79,0.00,,,0.05,Rainwise IP-100,2013-04-14 15:48:00,
2013-04-14 11:53:00,40.0,35.0,30.06,NNE,22,4.0,7.0,78,0.00,,,0.05,Rainwise IP-100,2013-04-14 15:53:00,
2013-04-14 11:58:00,40.0,33.0,30.06,North,360,0.0,6.0,76,0.00,,,0.05,Rainwise IP-100,2013-04-14 15:58:00,
2013-04-14 12:03:00,40.0,35.0,30.06,East,90,0.0,5.0,78,0.00,,,0.05,Rainwise IP-100,2013-04-14 16:03:00,
2013-04-14 12:08:00,40.0,35.0,30.06,East,90,0.0,3.0,79,0.00,,,0.05,Rainwise IP-100,2013-04-14 16:08:00,
2013-04-14 12:13:00,40.0,35.0,30.06,SW,225,6.0,9.0,78,0.00,,,0.05,Rainwise IP-100,2013-04-14 16:13:00,
2013-04-14 12:18:00,39.0,35.0,30.06,South,180,6.0,13.0,83,0.00,,,0.05,Rainwise IP-100,2013-04-14 16:18:00,
2013-04-14 12:23:00,39.0,33.0,30.07,SW,225,4.0,10.0,78,0.00,,,0.05,Rainwise IP-100,2013-04-14 16:23:00,
2013-04-14 12:28:00,39.0,33.0,30.07,SW,225,9.0,10.0,80,0.00,,,0.05,Rainwise IP-100,2013-04-14 16:28:00,
2013-04-14 12:33:00,39.0,33.0,30.07,SSW,202,8.0,10.0,78,0.00,,,0.05,Rainwise IP-100,2013-04-14 16:33:00,
2013-04-14 12:38:00,38.0,32.0,30.07,West,270,7.0,8.0,80,0.00,,,0.05,Rainwise IP-100,2013-04-14 16:38:00,
2013-04-14 12:43:00,38.0,33.0,30.08,WNW,292,7.0,9.0,83,0.00,,,0.05,Rainwise IP-100,2013-04-14 16:43:00,
2013-04-14 12:48:00,37.0,33.0,30.08,NNW,337,10.0,20.0,85,0.00,,,0.05,Rainwise IP-100,2013-04-14 16:48:00,
2013-04-14 12:53:00,37.0,33.0,30.09,NNW,337,10.0,13.0,86,0.00,,,0.05,Rainwise IP-100,2013-04-14 16:53:00,
2013-04-14 12:58:00,37.0,33.0,30.09,NW,315,5.0,15.0,87,0.00,,,0.05,Rainwise IP-100,2013-04-14 16:58:00,
2013-04-14 13:03:00,37.0,35.0,30.09,North,360,6.0,15.0,91,0.00,,,0.05,Rainwise IP-100,2013-04-14 17:03:00,
2013-04-14 13:08:00,35.0,32.0,30.09,West,270,7.0,16.0,90,0.00,,,0.05,Rainwise IP-100,2013-04-14 17:08:00,
2013-04-14 13:13:00,35.0,32.0,30.11,West,270,9.0,13.0,91,0.00,,,0.05,Rainwise IP-100,2013-04-14 17:13:00,
2013-04-14 13:18:00,35.0,33.0,30.11,SW,225,8.0,12.0,94,0.00,,,0.05,Rainwise IP-100,2013-04-14 17:18:00,
2013-04-14 13:23:00,35.0,33.0,30.10,SW,225,12.0,12.0,95,0.00,,,0.05,Rainwise IP-100,2013-04-14 17:23:00,
2013-04-14 13:29:00,35.0,33.0,30.10,South,180,11.0,12.0,95,0.00,,,0.05,Rainwise IP-100,2013-04-14 17:29:00,
2013-04-14 13:34:00,35.0,33.0,30.10,South,180,10.0,13.0,95,0.00,,,0.05,Rainwise IP-100,2013-04-14 17:34:00,
2013-04-14 13:39:00,36.0,35.0,30.10,SSE,157,10.0,10.0,95,0.00,,,0.05,Rainwise IP-100,2013-04-14 17:39:00,
2013-04-14 13:44:00,36.0,35.0,30.10,SSE,157,7.0,12.0,95,0.00,,,0.05,Rainwise IP-100,2013-04-14 17:44:00,
2013-04-14 13:49:00,36.0,35.0,30.10,South,180,12.0,12.0,94,0.00,,,0.05,Rainwise IP-100,2013-04-14 17:49:00,
2013-04-14 13:54:00,37.0,36.0,30.11,South,180,10.0,12.0,96,0.00,,,0.05,Rainwise IP-100,2013-04-14 17:54:00,
2013-04-14 13:59:00,37.0,36.0,30.11,South,180,12.0,14.0,96,0.00,,,0.05,Rainwise IP-100,2013-04-14 17:59:00,
2013-04-14 14:04:00,37.0,36.0,30.11,SSE,157,8.0,13.0,96,0.00,,,0.05,Rainwise IP-100,2013-04-14 18:04:00,
2013-04-14 14:09:00,38.0,37.0,30.11,SSW,202,6.0,10.0,96,0.00,,,0.05,Rainwise IP-100,2013-04-14 18:09:00,
2013-04-14 14:14:00,38.0,36.0,30.10,SW,225,6.0,10.0,93,0.00,,,0.05,Rainwise IP-100,2013-04-14 18:14:00,
2013-04-14 14:19:00,39.0,36.0,30.10,South,180,4.0,9.0,89,0.00,,,0.05,Rainwise IP-100,2013-04-14 18:19:00,
2013-04-14 14:24:00,40.0,38.0,30.10,SSW,202,6.0,6.0,90,0.00,,,0.05,Rainwise IP-100,2013-04-14 18:24:00,
2013-04-14 14:29:00,39.0,35.0,30.10,South,180,7.0,7.0,84,0.00,,,0.05,Rainwise IP-100,2013-04-14 18:29:00,
2013-04-14 14:34:00,40.0,36.0,30.10,WSW,247,5.0,8.0,84,0.00,,,0.05,Rainwise IP-100,2013-04-14 18:34:00,
2013-04-14 14:39:00,40.0,36.0,30.10,South,180,7.0,7.0,82,0.00,,,0.05,Rainwise IP-100,2013-04-14 18:39:00,
2013-04-14 14:44:00,40.0,35.0,30.10,SSE,157,6.0,8.0,81,0.00,,,0.05,Rainwise IP-100,2013-04-14 18:44:00,
2013-04-14 14:49:00,40.0,35.0,30.10,SE,135,4.0,11.0,80,0.00,,,0.05,Rainwise IP-100,2013-04-14 18:49:00,
2013-04-14 14:54:00,40.0,35.0,30.11,WSW,247,5.0,7.0,81,0.00,,,0.05,Rainwise IP-100,2013-04-14 18:54:00,
2013-04-14 14:59:00,41.0,36.0,30.11,NW,315,6.0,9.0,82,0.00,,,0.05,Rainwise IP-100,2013-04-14 18:59:00,
2013-04-14 15:04:00,40.0,35.0,30.11,NE,45,6.0,10.0,81,0.00,,,0.05,Rainwise IP-100,2013-04-14 19:04:00,
2013-04-14 15:09:00,40.0,36.0,30.11,ENE,67,6.0,10.0,83,0.00,,,0.05,Rainwise IP-100,2013-04-14 19:09:00,
2013-04-14 15:14:00,40.0,36.0,30.11,East,90,6.0,7.0,83,0.00,,,0.05,Rainwise IP-100,2013-04-14 19:14:00,
2013-04-14 15:19:00,40.0,35.0,30.11,North,360,5.0,7.0,79,0.00,,,0.05,Rainwise IP-100,2013-04-14 19:19:00,
2013-04-14 15:24:00,41.0,35.0,30.11,West,270,7.0,7.0,78,0.00,,,0.05,Rainwise IP-100,2013-04-14 19:24:00,
2013-04-14 15:29:00,40.0,33.0,30.11,WNW,292,8.0,13.0,76,0.00,,,0.05,Rainwise IP-100,2013-04-14 19:29:00,
2013-04-14 15:34:00,40.0,33.0,30.11,West,270,7.0,10.0,77,0.00,,,0.05,Rainwise IP-100,2013-04-14 19:34:00,
2013-04-14 15:39:00,40.0,33.0,30.11,SW,225,5.0,12.0,77,0.00,,,0.05,Rainwise IP-100,2013-04-14 19:39:00,
2013-04-14 15:44:00,40.0,35.0,30.12,NW,315,8.0,10.0,78,0.00,,,0.05,Rainwise IP-100,2013-04-14 19:44:00,
2013-04-14 15:49:00,39.0,33.0,30.12,NW,315,8.0,10.0,78,0.00,,,0.05,Rainwise IP-100,2013-04-14 19:49:00,
2013-04-14 15:54:00,39.0,32.0,30.13,NW,315,9.0,12.0,77,0.00,,,0.05,Rainwise IP-100,2013-04-14 19:54:00,
2013-04-14 15:59:00,40.0,33.0,30.13,NW,315,9.0,12.0,75,0.00,,,0.05,Rainwise IP-100,2013-04-14 19:59:00,
2013-04-14 16:04:00,40.0,33.0,30.13,NNW,337,7.0,11.0,74,0.00,,,0.05,Rainwise IP-100,2013-04-14 20:04:00,
2013-04-14 16:09:00,40.0,32.0,30.13,NNW,337,5.0,9.0,73,0.00,,,0.05,Rainwise IP-100,2013-04-14 20:09:00,
2013-04-14 16:14:00,41.0,32.0,30.12,North,360,8.0,15.0,69,0.00,,,0.05,Rainwise IP-100,2013-04-14 20:14:00,
2013-04-14 16:19:00,41.0,32.0,30.12,North,360,15.0,15.0,69,0.00,,,0.05,Rainwise IP-100,2013-04-14 20:19:00,
2013-04-14 16:24:00,40.0,31.0,30.13,North,360,16.0,16.0,69,0.00,,,0.05,Rainwise IP-100,2013-04-14 20:24:00,
2013-04-14 16:29:00,40.0,32.0,30.13,NNW,337,13.0,17.0,71,0.00,,,0.05,Rainwise IP-100,2013-04-14 20:29:00,
2013-04-14 16:34:00,40.0,32.0,30.13,NNW,337,10.0,17.0,73,0.00,,,0.05,Rainwise IP-100,2013-04-14 20:34:00,
2013-04-14 16:39:00,40.0,32.0,30.13,NW,315,8.0,16.0,73,0.00,,,0.05,Rainwise IP-100,2013-04-14 20:39:00,
2013-04-14 16:44:00,40.0,33.0,30.14,NW,315,7.0,15.0,76,0.00,,,0.05,Rainwise IP-100,2013-04-14 20:44:00,
2013-04-14 16:49:00,40.0,35.0,30.14,NW,315,6.0,12.0,78,0.00,,,0.05,Rainwise IP-100,2013-04-14 20:49:00,
2013-04-14 16:54:00,39.0,33.0,30.15,North,360,4.0,10.0,80,0.00,,,0.05,Rainwise IP-100,2013-04-14 20:54:00,
2013-04-14 16:59:00,39.0,33.0,30.15,NNW,337,6.0,6.0,81,0.00,,,0.05,Rainwise IP-100,2013-04-14 20:59:00,
2013-04-14 17:04:00,39.0,35.0,30.15,NW,315,0.0,9.0,82,0.00,,,0.05,Rainwise IP-100,2013-04-14 21:04:00,
2013-04-14 17:09:00,39.0,33.0,30.15,NNW,337,7.0,9.0,81,0.00,,,0.05,Rainwise IP-100,2013-04-14 21:09:00,
2013-04-14 17:14:00,39.0,33.0,30.16,NNW,337,6.0,9.0,81,0.00,,,0.05,Rainwise IP-100,2013-04-14 21:14:00,
2013-04-14 17:19:00,39.0,33.0,30.16,North,360,6.0,14.0,78,0.00,,,0.05,Rainwise IP-100,2013-04-14 21:19:00,
2013-04-14 17:24:00,39.0,33.0,30.17,NNW,337,6.0,16.0,79,0.00,,,0.05,Rainwise IP-100,2013-04-14 21:24:00,
2013-04-14 17:29:00,39.0,33.0,30.17,NNW,337,10.0,12.0,78,0.00,,,0.05,Rainwise IP-100,2013-04-14 21:29:00,
2013-04-14 17:34:00,39.0,33.0,30.17,NW,315,6.0,12.0,78,0.00,,,0.05,Rainwise IP-100,2013-04-14 21:34:00,
2013-04-14 17:39:00,39.0,33.0,30.17,North,360,6.0,8.0,78,0.00,,,0.05,Rainwise IP-100,2013-04-14 21:39:00,
2013-04-14 17:44:00,39.0,32.0,30.17,NW,315,6.0,12.0,77,0.00,,,0.05,Rainwise IP-100,2013-04-14 21:44:00,
2013-04-14 17:49:00,39.0,32.0,30.17,NW,315,7.0,12.0,77,0.00,,,0.05,Rainwise IP-100,2013-04-14 21:49:00,
2013-04-14 17:54:00,39.0,32.0,30.18,NW,315,9.0,15.0,77,0.00,,,0.05,Rainwise IP-100,2013-04-14 21:54:00,
2013-04-14 17:59:00,39.0,33.0,30.18,North,360,11.0,12.0,78,0.00,,,0.05,Rainwise IP-100,2013-04-14 21:59:00,
2013-04-14 18:04:00,38.0,33.0,30.19,NW,315,13.0,17.0,82,0.00,,,0.05,Rainwise IP-100,2013-04-14 22:04:00,
2013-04-14 18:09:00,36.0,32.0,30.19,NW,315,9.0,17.0,87,0.00,,,0.05,Rainwise IP-100,2013-04-14 22:09:00,
2013-04-14 18:14:00,36.0,33.0,30.21,West,270,5.0,13.0,89,0.00,,,0.05,Rainwise IP-100,2013-04-14 22:14:00,
2013-04-14 18:19:00,37.0,32.0,30.21,WNW,292,15.0,15.0,82,0.00,,,0.05,Rainwise IP-100,2013-04-14 22:19:00,
2013-04-14 18:24:00,36.0,32.0,30.21,West,270,6.0,15.0,85,0.00,,,0.05,Rainwise IP-100,2013-04-14 22:24:00,
2013-04-14 18:29:00,37.0,32.0,30.21,South,180,4.0,8.0,84,0.00,,,0.05,Rainwise IP-100,2013-04-14 22:29:00,
2013-04-14 18:34:00,37.0,32.0,30.21,SSW,202,6.0,7.0,83,0.00,,,0.05,Rainwise IP-100,2013-04-14 22:34:00,
2013-04-14 18:39:00,37.0,32.0,30.21,SSW,202,5.0,9.0,82,0.00,,,0.05,Rainwise IP-100,2013-04-14 22:39:00,
2013-04-14 18:44:00,37.0,32.0,30.21,South,180,2.0,10.0,84,0.00,,,0.05,Rainwise IP-100,2013-04-14 22:44:00,
2013-04-14 18:49:00,37.0,32.0,30.21,SW,225,5.0,10.0,81,0.00,,,0.05,Rainwise IP-100,2013-04-14 22:49:00,
2013-04-14 18:54:00,37.0,31.0,30.21,South,180,5.0,10.0,78,0.00,,,0.05,Rainwise IP-100,2013-04-14 22:54:00,
2013-04-14 18:59:00,37.0,31.0,30.21,East,90,7.0,10.0,78,0.00,,,0.05,Rainwise IP-100,2013-04-14 22:59:00,
2013-04-14 19:04:00,37.0,31.0,30.21,North,360,6.0,10.0,79,0.00,,,0.05,Rainwise IP-100,2013-04-14 23:04:00,
2013-04-14 19:09:00,37.0,32.0,30.21,NW,315,4.0,7.0,80,0.00,,,0.05,Rainwise IP-100,2013-04-14 23:09:00,
2013-04-14 19:14:00,37.0,31.0,30.21,North,360,5.0,6.0,79,0.00,,,0.05,Rainwise IP-100,2013-04-14 23:14:00,
2013-04-14 19:19:00,37.0,32.0,30.21,North,360,0.0,7.0,80,0.00,,,0.05,Rainwise IP-100,2013-04-14 23:19:00,
2013-04-14 19:24:00,37.0,31.0,30.22,West,270,4.0,4.0,79,0.00,,,0.05,Rainwise IP-100,2013-04-14 23:24:00,
2013-04-14 19:29:00,37.0,32.0,30.22,West,270,3.0,6.0,80,0.00,,,0.05,Rainwise IP-100,2013-04-14 23:29:00,
2013-04-14 19:34:00,36.0,31.0,30.22,West,270,5.0,5.0,81,0.00,,,0.05,Rainwise IP-100,2013-04-14 23:34:00,
2013-04-14 19:39:00,37.0,32.0,30.22,NW,315,5.0,8.0,80,0.00,,,0.05,Rainwise IP-100,2013-04-14 23:39:00,
2013-04-14 19:44:00,37.0,32.0,30.22,NW,315,1.0,8.0,80,0.00,,,0.05,Rainwise IP-100,2013-04-14 23:44:00,
2013-04-14 19:49:00,36.0,31.0,30.22,NW,315,2.0,4.0,81,0.00,,,0.05,Rainwise IP-100,2013-04-14 23:49:00,
2013-04-14 19:54:00,36.0,31.0,30.23,NW,315,1.0,3.0,83,0.00,,,0.05,Rainwise IP-100,2013-04-14 23:54:00,
2013-04-14 19:59:00,35.0,31.0,30.23,ESE,112,5.0,5.0,85,0.00,,,0.05,Rainwise IP-100,2013-04-14 23:59:00,
2013-04-14 20:04:00,35.0,31.0,30.23,NE,45,0.0,7.0,85,0.00,,,0.05,Rainwise IP-100,2013-04-15 00:04:00,
2013-04-14 20:09:00,35.0,31.0,30.23,NNW,337,0.0,4.0,86,0.00,,,0.05,Rainwise IP-100,2013-04-15 00:09:00,
2013-04-14 20:14:00,35.0,31.0,30.23,East,90,3.0,9.0,85,0.00,,,0.05,Rainwise IP-100,2013-04-15 00:14:00,
2013-04-14 20:19:00,35.0,31.0,30.23,North,360,3.0,9.0,86,0.00,,,0.05,Rainwise IP-100,2013-04-15 00:19:00,
2013-04-14 20:24:00,34.0,31.0,30.24,NNW,337,4.0,6.0,86,0.00,,,0.05,Rainwise IP-100,2013-04-15 00:24:00,
2013-04-14 20:29:00,34.0,31.0,30.24,North,360,1.0,6.0,85,0.00,,,0.05,Rainwise IP-100,2013-04-15 00:29:00,
2013-04-14 20:34:00,35.0,31.0,30.25,SSW,202,1.0,3.0,84,0.00,,,0.05,Rainwise IP-100,2013-04-15 00:34:00,
2013-04-14 20:39:00,35.0,31.0,30.25,NW,315,4.0,6.0,83,0.00,,,0.05,Rainwise IP-100,2013-04-15 00:39:00,
2013-04-14 20:44:00,35.0,31.0,30.25,SE,135,4.0,6.0,83,0.00,,,0.05,Rainwise IP-100,2013-04-15 00:44:00,
2013-04-14 20:49:00,35.0,29.0,30.25,SSE,157,1.0,4.0,82,0.00,,,0.05,Rainwise IP-100,2013-04-15 00:49:00,
2013-04-14 20:54:00,36.0,31.0,30.25,SSE,157,1.0,2.0,80,0.00,,,0.05,Rainwise IP-100,2013-04-15 00:54:00,
2013-04-14 20:59:00,36.0,31.0,30.25,NE,45,2.0,6.0,80,0.00,,,0.05,Rainwise IP-100,2013-04-15 00:59:00,
2013-04-14 21:04:00,35.0,29.0,30.26,NNW,337,5.0,5.0,81,0.00,,,0.05,Rainwise IP-100,2013-04-15 01:04:00,
2013-04-14 21:09:00,34.0,31.0,30.26,NW,315,0.0,8.0,85,0.00,,,0.05,Rainwise IP-100,2013-04-15 01:09:00,
2013-04-14 21:14:00,34.0,31.0,30.27,NW,315,0.0,3.0,85,0.00,,,0.05,Rainwise IP-100,2013-04-15 01:14:00,
2013-04-14 21:19:00,33.0,31.0,30.27,SSE,157,1.0,0.0,87,0.00,,,0.05,Rainwise IP-100,2013-04-15 01:19:00,
2013-04-14 21:24:00,33.0,31.0,30.27,South,180,1.0,4.0,87,0.00,,,0.05,Rainwise IP-100,2013-04-15 01:24:00,
2013-04-14 21:29:00,33.0,31.0,30.27,South,180,1.0,2.0,87,0.00,,,0.05,Rainwise IP-100,2013-04-15 01:29:00,
2013-04-14 21:34:00,33.0,31.0,30.28,South,180,2.0,3.0,87,0.00,,,0.05,Rainwise IP-100,2013-04-15 01:34:00,
2013-04-14 21:39:00,33.0,31.0,30.28,South,180,3.0,4.0,89,0.00,,,0.05,Rainwise IP-100,2013-04-15 01:39:00,
2013-04-14 21:44:00,33.0,31.0,30.28,South,180,3.0,4.0,90,0.00,,,0.05,Rainwise IP-100,2013-04-15 01:44:00,
2013-04-14 21:49:00,33.0,31.0,30.28,SSE,157,3.0,5.0,88,0.00,,,0.05,Rainwise IP-100,2013-04-15 01:49:00,
2013-04-14 21:54:00,32.0,29.0,30.27,SW,225,3.0,4.0,91,0.00,,,0.05,Rainwise IP-100,2013-04-15 01:54:00,
2013-04-14 21:59:00,31.0,29.0,30.27,SSW,202,4.0,4.0,95,0.00,,,0.05,Rainwise IP-100,2013-04-15 01:59:00,
2013-04-14 22:04:00,31.0,29.0,30.29,SSW,202,4.0,5.0,94,0.00,,,0.05,Rainwise IP-100,2013-04-15 02:04:00,
2013-04-14 22:09:00,31.0,29.0,30.29,SSW,202,5.0,6.0,95,0.00,,,0.05,Rainwise IP-100,2013-04-15 02:09:00,
2013-04-14 22:14:00,31.0,29.0,30.29,South,180,4.0,6.0,95,0.00,,,0.05,Rainwise IP-100,2013-04-15 02:14:00,
2013-04-14 22:19:00,30.0,29.0,30.29,SSW,202,5.0,6.0,95,0.00,,,0.05,Rainwise IP-100,2013-04-15 02:19:00,
2013-04-14 22:24:00,31.0,29.0,30.29,South,180,7.0,7.0,95,0.00,,,0.05,Rainwise IP-100,2013-04-15 02:24:00,
2013-04-14 22:29:00,31.0,29.0,30.29,SE,135,6.0,7.0,95,0.00,,,0.05,Rainwise IP-100,2013-04-15 02:29:00,
2013-04-14 22:34:00,31.0,29.0,30.29,SSE,157,6.0,7.0,95,0.00,,,0.05,Rainwise IP-100,2013-04-15 02:34:00,
2013-04-14 22:39:00,31.0,29.0,30.29,SSE,157,4.0,7.0,94,0.00,,,0.05,Rainwise IP-100,2013-04-15 02:39:00,
2013-04-14 22:44:00,31.0,29.0,30.29,WSW,247,3.0,5.0,94,0.00,,,0.05,Rainwise IP-100,2013-04-15 02:44:00,
2013-04-14 22:49:00,30.0,29.0,30.29,WSW,247,1.0,4.0,95,0.00,,,0.05,Rainwise IP-100,2013-04-15 02:49:00,
2013-04-14 22:54:00,30.0,29.0,30.29,South,180,0.0,2.0,95,0.00,,,0.05,Rainwise IP-100,2013-04-15 02:54:00,
2013-04-14 22:59:00,29.0,28.0,30.29,South,180,0.0,0.0,94,0.00,,,0.05,Rainwise IP-100,2013-04-15 02:59:00,
2013-04-14 23:04:00,29.0,28.0,30.30,WSW,247,1.0,3.0,94,0.00,,,0.05,Rainwise IP-100,2013-04-15 03:04:00,
2013-04-14 23:09:00,29.0,28.0,30.30,South,180,4.0,4.0,94,0.00,,,0.05,Rainwise IP-100,2013-04-15 03:09:00,
2013-04-14 23:14:00,29.0,28.0,30.30,SE,135,5.0,6.0,94,0.00,,,0.05,Rainwise IP-100,2013-04-15 03:14:00,
2013-04-14 23:19:00,29.0,28.0,30.30,SE,135,5.0,6.0,94,0.00,,,0.05,Rainwise IP-100,2013-04-15 03:19:00,
2013-04-14 23:24:00,29.0,28.0,30.30,SE,135,6.0,6.0,94,0.00,,,0.05,Rainwise IP-100,2013-04-15 03:24:00,
2013-04-14 23:29:00,30.0,29.0,30.30,SSE,157,7.0,8.0,95,0.00,,,0.05,Rainwise IP-100,2013-04-15 03:29:00,
2013-04-14 23:34:00,30.0,29.0,30.30,South,180,6.0,8.0,95,0.00,,,0.05,Rainwise IP-100,2013-04-15 03:34:00,
2013-04-14 23:39:00,30.0,29.0,30.30,SSE,157,5.0,7.0,95,0.00,,,0.05,Rainwise IP-100,2013-04-15 03:39:00,
2013-04-14 23:44:00,29.0,28.0,30.31,South,180,7.0,8.0,94,0.00,,,0.05,Rainwise IP-100,2013-04-15 03:44:00,
2013-04-14 23:49:00,29.0,28.0,30.31,South,180,6.0,8.0,94,0.00,,,0.05,Rainwise IP-100,2013-04-15 03:49:00,
2013-04-14 23:54:00,29.0,28.0,30.31,SW,225,4.0,6.0,94,0.00,,,0.05,Rainwise IP-100,2013-04-15 03:54:00,
2013-04-14 23:59:00,29.0,28.0,30.31,SSW,202,5.0,5.0,94,0.00,,,0.05,Rainwise IP-100,2013-04-15 03:59:00,